www.pogodaiklimat.ru

Погода и климат >> Архив погоды >> Украина >> Гайворон


ПОГОДА в Гайвороне

  • Прогноз погоды в Гайвороне
  • Монитор погоды в Гайвороне

АРХИВ ПОГОДЫ в Гайвороне

Время (UTC), дата Ветер
(напр.,м/с)
 
Видим.   Явления Облачность Т
(С)
Тd
(С)
f
(%)
Тe
(С)
Тes
(С)
Комфортность P
(гПа)
Po
(гПа)
Тmin
(С)
Tmax
(С)
R
(мм)
R24
(мм)
S
(см)
00 9.06 штиль 0 4000 м дымка ясно +17.1 +16.4 96 +17 +17 1020.2 1002.4
03 9.06 СЗ 1 4000 м дымка ясно +15.9 +15.4 97 +17 +17 1020.9 1000.0
06 9.06 СВ 2 10 км 3/0
[Ci fib]
+22.5 +21.1 92 +30 +37 очень
душно
1021.1 1000.7 +15.9
09 9.06 В 2 20 км 4/4 600 м
[Cu med, cong]
+26.4 +20.2 69 +33 +43 очень
душно
1021.0 1000.8
12 9.06 В 3 20 км гроза без осадков 4/3 600 м
[Cu med, cong Ci fib]
+28.0 +16.9 51 +32 +39 душно 1024.0 1004.0
15 9.06 СВ 2 10 км гроза без осадков 8/6 700 м
[Cb cap Ci fib]
+26.6 +18.7 62 +32 +33 очень
душно
1019.1 999.0
18 9.06 штиль 0 10 км {гроза} 8/0
[Cs]
+23.4 +19.5 79 +30 +30 очень
душно
1020.1 999.7 +28.5
21 9.06 штиль 0 4000 м дымка 3/0
[Ci fib]
+19.9 +19.0 95 +23 +23 комфорт 1019.8 999.2
00 10.06 штиль 0 4000 м дымка ясно +18.1 +17.4 96 +18 +18 1020.3 1002.5
03 10.06 штиль 0 4000 м дымка 6/0
[Ac cast]
+17.2 +16.7 97 +17 +17 1020.4 999.6
06 10.06 В 2 10 км ясно +24.0 +18.0 69 +28 +36 душно 1019.9 999.6 +17.0
09 10.06 СВ 2 20 км ясно +27.6 +18.9 59 +33 +50 очень
душно
1019.2 999.1
12 10.06 В 2 20 км 4/4 600 м
[Cb calv]
+30.0 +18.4 50 +35 +44 очень
душно
1021.1 1001.3
15 10.06 В 2 20 км 3/3 600 м
[Cb calv]
+29.5 +17.3 48 +34 +37 очень
душно
1016.6 996.7
18 10.06 СВ 2 10 км 3/0
[Ci fib]
+25.2 +17.1 61 +29 +29 душно 1016.9 996.7 +30.4
21 10.06 СВ 1 10 км ясно +20.7 +16.3 76 +25 +25 комфорт 1017.3 996.8
00 11.06 В 1 10 км ясно +19.3 +15.6 79 +22 +22 комфорт 1020.5 1000.0
03 11.06 штиль 0 4000 м дымка ясно +17.1 +16.0 93 +17 +18 1017.1 996.4
06 11.06 СВ 1 10 км ясно +24.6 +18.3 68 +29 +38 душно 1016.8 996.6 +16.9
09 11.06 СВ 2 20 км ясно +28.6 +18.9 56 +34 +51 опасность
солнечного
удара
1016.5 996.6
12 11.06 СВ 3 20 км гроза без осадков 4/4 600 м
[Cb calv]
+30.5 +18.2 48 +35 +43 очень
душно
1018.4 998.7
15 11.06 СВ 3 20 км {гроза} 8/0
[Ci fib]
+28.4 +16.8 49 +32 +35 душно 1015.0 995.1
18 11.06 штиль 0 10 км {гроза} 8/0
[Ci fib]
+24.5 +17.2 64 +28 +28 душно 1015.6 995.4 +31.2
21 11.06 штиль 0 4000 м дымка ясно +19.7 +18.0 90
00 12.06 штиль 0 4000 м дымка ясно +17.1 +16.5 96 +17 +17 1019.3 998.7
03 12.06 штиль 0 4000 м дымка ясно +16.1 +15.8 98
06 12.06 СВ 1 20 км 3/0
[Ci fib]
+24.7 +16.9 62 +28 +37 душно 1014.9 994.7 +15.9
09 12.06 В 2 20 км ясно +29.2 +17.0 48
12 12.06 СВ 3 20 км 3/3 1000 м
[Cu hum]
+30.7 +13.9 36 +32 +42 жарко 1017.0 997.3
15 12.06 СВ 3 20 км ясно +30.3 +15.9 42 +33 +37 душно 1013.2 993.4
18 12.06 С 2 10 км ясно +26.8 +16.7 54 +30 +30 душно 1013.7 993.7 +31.2
21 12.06 штиль 0 10 км 3/0
[Ac trans]
+21.2 +17.4 79 +25 +25 комфорт 1014.8 994.4
00 13.06 штиль 0 4000 м дымка ясно +18.5 +17.2 92 +19 +19 1017.8 997.3
03 13.06 штиль 0 4000 м дымка ясно +17.6 +16.3 92 +18 +18 1015.0 994.3
06 13.06 В 1 20 км ясно +25.1 +18.5 67 +30 +39 душно 1015.7 995.5 +17.6
09 13.06 ЮВ 3 20 км 4/3 600 м
[Cb calv Ci fib]
+29.4 +16.6 46 +33 +43 душно 1016.1 996.2
12 13.06 ЮВ 4 20 км 8/6 840 м
[Sc diur, vesp Ci fib]
+28.6 +15.8 46 +32 +35 душно 1021.2 1001.3
15 13.06 штиль 0 20 км 10/8 720 м
[Cb cap As op]
+25.2 +15.3 54 +28 +28 жарко 1017.2 997.0
18 13.06 С 1 10 км 8/0
[Ac As]
+24.5 +16.7 62 +28 +28 душно 1016.7 996.5 +31.2
21 13.06 штиль 0 10 км 8/8 840 м
[Sc]
+22.3 +17.3 73 +27 +27 душно 1018.0 997.6
00 14.06 штиль 0 4000 м дымка 10/10 840 м
[Sc]
+19.5 +18.5 94 +22 +22 комфорт 1018.1 1000.4
03 14.06 С 2 4000 м дымка 8/0
[Ac cast]
+19.9 +18.6 92 +24 +24 комфорт 1017.7 997.1
06 14.06 В 1 10 км {ливн. осадки} 4/0
[Ac und]
+25.0 +18.2 66 +29 +36 душно 1018.6 998.4 +19.0 0.5
09 14.06 В 2 20 км ясно +27.9 +18.6 57 +33 +50 очень
душно
1018.6 998.6
12 14.06 В 1 20 км 1/0
[Ac trans]
+31.0 +18.0 46 +35 +51 опасность
солнечного
удара
1022.4 1002.7
15 14.06 СВ 1 20 км 1/0
[Ac trans]
+30.5 +17.6 46 +35 +40 очень
душно
1016.9 997.1
18 14.06 штиль 0 10 км 3/0
[Ci fib]
+27.4 +21.2 69 +35 +35 очень
душно
1016.9 996.9 +31.5
21 14.06 штиль 0 4000 м дымка ясно +22.1 +20.6 91
00 15.06 штиль 0 4000 м дымка ясно +19.7 +19.0 96 +22 +22 комфорт 1021.7 1001.3
03 15.06 штиль 0 4000 м дымка ясно +19.1 +18.4 96
06 15.06 В 1 20 км 2 балла +24.6 +20.3 77 +19.0
09 15.06 СЗ 1 20 км 8/8 800 м
[Cb calv]
+29.2 +19.2 55 +35 +39 очень
душно
1015.8 995.9
12 15.06 ЮВ 3 10 км гроза без осадков 7 баллов +22.9 +18.0 74 +28 +32 душно 1020.2 1000.0
15 15.06 З 2 10 км {гроза} 8/0
[Cs]
+26.6 +19.3 64 +32 +36 очень
душно
1013.9 993.9
18 15.06 штиль 0 10 км 6 баллов +25.4 +22.9 86 +30.0 2
21 15.06 штиль 0 4000 м дымка 4/0
[Ci fib]
+21.0 +20.6 98 +26 +26 душно 1014.4 994.0

 

Местоположение метеостанции Гайворон (Кировоградская область, Украина): широта 48.35 долгота 29.87 высота над уровнем моря 175 м.

В архиве по умолчанию представлена погода в Гайвороне за последнюю неделю. Архивные данные за месяц целиком и за предыдущие месяцы, начиная с января 2011 года, Вы можете получить, выбрав интересующий диапазон дат из раскрывающегося списка и нажав кнопку "Ввод!".


*Определитесь, кто Вы:
робот инопланетянин человек

Внимание! Время в таблицах - всемирное. Для получения местного времени необходимо прибавить поправку, которая равна 2 ч.

Смотрите также архив погоды в соседних городах и на ближайших метеорологических станциях:

Погода в Умани (Черкасская область, Украина) (54 км)
Погода в Гайсине (Винницкая область, Украина) (61 км)
Погода в Любашевке (Одесская область, Украина) (63 км)
Погода в Первомайске (Николаевская область, Украина) (80 км)
Погода в Рыбнице (Молдова) (90 км)
Погода в Каменке (Молдова) (94 км)
Погода в Жашкове (Черкасская область, Украина) (102 км)
Погода в Звенигородке (Черкасская область, Украина) (111 км)
Погода в Затишье (Одесская область, Украина) (113 км)
Погода в Помошной (Кировоградская область, Украина) (114 км)

Пояснения к столбцам:

Ветер - указаны скорость ветра в м/с - средняя за 10 мин, порывы в срок и между сроками (в фигурных скобках) и направление, откуда дует ветер: С - северный, СВ - северо-восточный, В - восточный, ЮВ - юго-восточный, Ю - южный, ЮЗ - юго-западный, З - западный, СЗ - северо-западный.
Видимость - горизонтальная дальность видимости в метрах или километрах. При видимости от 1 до 10 км при отсутствии осадков обычно наблюдается дымка, при ухудшении видимости до 1 км и менее - туман. В сухую погоду видимость может ухудшаться дымом, пылью или мглою.
Явления - указаны атмосферные явления, наблюдавшиеся в срок или в последний час перед сроком; фигурными скобками обозначены явления, наблюдавшиеся между сроками (за 1-3 часа до срока); квадратными скобками обозначены град или гололедные отложения с указанием их диаметра в мм.
Облачность - указаны через наклонную черту общая и нижняя облачность в баллах и высота нижней границы облаков в метрах; квадратными скобками обозначены формы облаков: Ci - перистые, Cs - перисто-слоистые, Cc - перисто-кучевые, Ac - высококучевые, As - высокослоистые, Sc - слоисто-кучевые, Ns - слоисто-дождевые, Cu - кучевые, Cb - кучево-дождевые. Подробнее классификацию облаков см. в Атласе облаков (PDF).
T - Температура воздуха - температура, измеренная на высоте 2 м над землей.
Td - Температура точки росы - температура, при понижении до которой содержащийся в воздухе водяной пар достигнет насыщения.
f - Относительная влажность воздуха - влажноcть воздуха, измеренная на высоте 2 м над землей.
Te - Эффективная температура - температура, которую ощущает одетый по сезону человек в тени. Характеристика душности погоды. При расчете учитывается влияние влажности воздуха и скорости ветра на теплоощущения человека.
Tes - Эффективная температура на солнце - температура, которую ощущает человек, с поправкой на солнечный нагрев. Характеристика знойности погоды. Зависит от высоты солнца над горизонтом, облачности и скорости ветра. Ночью, в пасмурную погоду, а также при ветре 12 м/с и более поправка равна нулю.
P - Атмосферное давление - приведенное к уровню моря атмосферное давление.
Po - Атмосферное давление - измеренное на уровне метеостанции атмосферное давление.
Tmin - Минимальная температура - минимум температуры воздуха на высоте 2 м над землей.
Tmax - Максимальная температура - максимум температуры воздуха на высоте 2 м над землей.
R - Количество осадков - Количество выпавших осадков за период времени, мм. При наведении курсора мыши на число - период времени, за который выпало указанное количество осадков.
R24 - Количество осадков - Количество выпавших осадков за 24 часа, мм.
S - Снежный покров - Высота снежного покрова, см. При наведении курсора мыши на число - состояние снежного покрова и степень покрытия местности в баллах.